Terug naar catalogus

STARLINK-5849

ActiefCommunicatieVLEO
NORAD 55924·PAYLOAD·🇺🇸 United States

Gelanceerd Mar 17, 2023 vanaf Vandenberg Space Force Base

Loading…

Volgende Passages (komende 24 uur)

TLE

VersSource: CelesTrak SupGP

Epoch: Sep 15, 2026, 02:28 UTC

1 55924C 23037L   26258.10326389  .00526640  00000+0  42770-1 0  2586
2 55924  70.0006 167.0450 0003124 273.6855 255.6506 14.99276126    16

Volg STARLINK-5849 in realtime met AllMySat

Download on the App Store